#timestamp,LO_Frequency,Hit,StdDev 
1459288815.1,286046999.2,N
1459288816.0,286046999.2,N
1459288835.8,286046998.2,N
1459288855.6,286046999.2,N
1459288875.5,286046997.8,N
1459288895.3,286046999.4,N
1459288915.1,286046998.1,N
1459288935.9,286046998.2,N
1459288955.7,286047001.9,N
1459288975.5,286047000.1,N
1459288995.4,286046999.3,N
1459289015.2,286046998.9,N
1459289035.0,286046996.6,N
1459289035.9,286046996.6,N
1459289055.8,286046997.3,N
1459289075.6,286046996.8,N
1459289095.4,286046996.5,N
1459289115.3,286046998.6,N
1459289135.1,286046997.0,N
1459289136.0,286046997.0,N
1459289155.8,286046995.0,N
1459289175.6,286046996.0,N
1459289195.5,286046995.6,N
1459289215.3,286046993.8,Y
1459289235.1,286046996.5,P
1459289255.9,286046999.0,N
1459289275.7,286046999.3,N
1459289295.5,286046999.1,N
1459289315.4,286046998.4,N
1459289335.2,286047001.1,N
1459289355.0,286046999.3,N
1459289355.9,286046999.3,N
1459289375.8,286046996.8,N
1459289395.6,286046996.7,N
1459289415.4,286046995.3,Y
1459289435.3,286046997.1,P
1459289455.1,286046999.1,N
1459289456.0,286046999.1,N
1459289475.8,286046998.1,N
1459289495.7,286047001.2,N
1459289515.5,286047002.3,N
1459289535.3,286047000.4,N
1459289555.2,286047000.3,N
1459289575.9,286047002.7,N
1459289595.7,286047001.1,N
1459289615.6,286047001.8,N
1459289635.4,286047003.4,N
1459289655.2,286047004.6,N
1459289675.1,286047009.1,Y
1459289676.0,286047009.1,P
1459289695.8,286047006.2,N
1459289715.6,286047008.0,N
1459289735.4,286047008.1,N
1459289755.3,286047010.0,Y
1459289775.1,286047008.8,P
1459289795.8,286047006.9,P
1459289815.7,286047009.0,P
1459289835.5,286047008.9,Y
1459289855.3,286047002.4,P
1459289875.2,286047001.5,N
1459289895.0,286047002.9,N
1459289895.9,286047002.9,N
1459289915.7,286047006.0,N
1459289935.6,286047003.3,N
1459289955.4,286047004.9,N
1459289975.2,286047004.9,N
1459289995.1,286047003.4,N
1459289996.0,286047003.4,N
1459290015.8,286047002.9,N
1459290035.6,286047001.8,N
1459290055.5,286047005.7,Y
1459290075.3,286046998.8,P
1459290095.1,286046998.4,N
1459290115.9,286046999.3,N
1459290135.7,286046998.6,N
1459290155.5,286047000.5,N
1459290175.4,286047000.5,N
1459290195.2,286047001.1,N
1459290215.0,286046999.1,N
1459290215.9,286046999.1,N
1459290235.8,286046997.0,N
1459290255.6,286047001.0,N
1459290275.4,286047001.4,N
1459290295.2,286047000.3,N
1459290315.1,286047002.6,N
1459290316.0,286047002.6,N
1459290335.8,286047001.5,N
1459290355.6,286047002.7,N
1459290375.5,286047000.3,N
1459290395.3,286047000.6,N
1459290415.1,286046998.1,N
1459290435.9,286046996.8,N
1459290455.7,286047001.2,N
1459290475.5,286046999.3,N
1459290495.4,286046997.4,N
1459290515.2,286046995.7,N
1459290535.0,286046996.2,N
1459290535.9,286046996.2,N
1459290555.8,286046995.8,N
1459290575.6,286046995.4,N
1459290595.4,286046995.0,N
1459290615.2,286046995.5,N
1459290635.1,286046994.0,N
1459290636.0,286046994.0,N
1459290655.8,286046993.6,N
1459290675.6,286046994.6,N
1459290695.5,286046994.4,N
1459290715.3,286046994.3,N
1459290735.1,286046996.3,N
1459290755.9,286046991.7,N
1459290775.7,286046994.0,N
1459290795.5,286046996.2,N
1459290815.4,286046993.7,N
1459290835.2,286046991.7,N
1459290855.0,286046993.2,N
1459290855.9,286046993.2,N
1459290875.8,286046991.0,Y
1459290895.6,286046997.7,P
1459290915.4,286046996.7,P
1459290935.3,286046997.1,P
1459290955.1,286046994.9,Y
1459290975.8,286047002.4,P
1459290995.7,286047002.6,N
1459291015.5,286047000.6,N
1459291035.3,286047000.6,N
1459291055.2,286046998.1,N
1459291075.9,286046997.5,N
1459291095.7,286046995.5,N
1459291115.6,286046999.3,N
1459291135.4,286046997.1,N
1459291155.2,286046997.5,N
1459291175.0,286046996.7,N
1459291176.0,286046996.7,N
1459291195.8,286046999.2,N
1459291215.6,286046998.4,N
1459291235.4,286046998.7,N
1459291255.3,286046998.8,N
1459291275.1,286046999.1,N
1459291295.8,286046999.7,N
1459291315.7,286047001.2,N
1459291335.5,286047002.4,N
1459291355.3,286047001.1,N
1459291375.2,286047002.3,N
1459291395.9,286047000.2,N
1459291415.7,286046998.4,N
1459291435.6,286046995.5,N
1459291455.4,286047000.9,N
1459291475.2,286046999.2,N
1459291495.1,286046998.8,N
1459291496.0,286046998.8,N
1459291515.8,286046999.3,N
1459291535.6,286047002.3,N
1459291555.4,286047001.9,N
1459291575.3,286047002.9,N
1459291595.1,286047004.1,N
1459291615.8,286047001.8,N
1459291635.7,286047004.3,N
1459291655.5,286047004.0,N
1459291675.3,286047003.0,N
1459291695.2,286046999.7,N
1459291715.9,286047006.0,N
1459291735.7,286047005.0,N
1459291755.6,286047007.6,Y
1459291775.4,286047005.0,P
1459291795.2,286047006.7,P
1459291815.1,286047006.4,N
1459291816.0,286047006.4,N
1459291835.8,286047008.4,Y
1459291855.6,286047001.3,P
1459291875.5,286047000.0,N
1459291895.3,286047002.5,N
1459291915.1,286047001.6,N
1459291935.9,286047003.0,N
1459291955.7,286047001.4,N
1459291975.5,286047001.4,N
1459291995.4,286047005.8,Y
1459292015.2,286047005.3,P
1459292035.0,286047001.4,N
1459292035.9,286047001.4,N
1459292055.8,286047001.7,N
1459292075.6,286047003.5,N
1459292095.4,286047005.5,Y
1459292115.3,286046999.8,P
1459292135.1,286046998.7,N
1459292136.0,286046998.7,N
1459292155.8,286047001.2,N
1459292175.7,286047001.0,N
1459292195.5,286046999.4,N
1459292215.3,286046996.8,N
1459292235.2,286046997.2,N
1459292255.9,286046996.3,N
1459292275.7,286046996.1,N
1459292295.5,286046995.3,N
1459292315.4,286046993.9,N
1459292335.2,286046992.6,Y
1459292355.0,286046994.3,P
1459292356.0,286046994.3,N
1459292375.8,286046994.5,N
1459292395.6,286046993.4,Y
